W5ALL-WX Weather Reports


Display with metric or nautical units.
time (UTC)temp
F
wind
direction
speed
MPH
gust
MPH
rain 1hr
in
rain 24hr
in
rain mn
in
humidity
%
barometer
mb
20240220215939 74 253 4.0 11.0 0.00 0.00 0.00 8 1021.0
20240220215439 74 274 4.0 11.0 0.00 0.00 0.00 8 1021.0
20240220214939 74 278 4.0 8.0 0.00 0.00 0.00 8 1021.0
20240220214439 73 172 0.0 9.0 0.00 0.00 0.00 8 1021.0
20240220213939 74 246 4.0 9.0 0.00 0.00 0.00 9 1021.0
20240220213439 73 160 3.0 6.0 0.00 0.00 0.00 9 1021.0
20240220212939 73 101 0.0 7.0 0.00 0.00 0.00 9 1021.4
20240220212439 73 293 0.0 7.0 0.00 0.00 0.00 9 1021.4
20240220211939 73 240 4.0 9.0 0.00 0.00 0.00 9 1021.4
20240220211439 73 288 6.0 9.0 0.00 0.00 0.00 9 1021.4
20240220210939 73 121 2.0 8.0 0.00 0.00 0.00 9 1021.4
20240220210439 73 195 3.0 9.0 0.00 0.00 0.00 9 1021.4
20240220205939 73 307 6.0 11.0 0.00 0.00 0.00 9 1021.4
20240220205439 73 250 1.0 11.0 0.00 0.00 0.00 9 1021.4
20240220204939 73 305 4.0 8.0 0.00 0.00 0.00 9 1021.4
20240220204439 72 318 1.0 9.0 0.00 0.00 0.00 8 1021.4
20240220203939 73 208 7.0 9.0 0.00 0.00 0.00 7 1021.7
20240220203439 73 329 3.0 10.0 0.00 0.00 0.00 8 1021.7
20240220202939 72 194 3.0 11.0 0.00 0.00 0.00 9 1021.7
20240220202439 73 186 8.0 12.0 0.00 0.00 0.00 9 1021.7
20240220201939 73 335 5.0 12.0 0.00 0.00 0.00 10 1022.1
20240220201439 73 248 4.0 12.0 0.00 0.00 0.00 9 1022.1
20240220200939 72 277 5.0 12.0 0.00 0.00 0.00 9 1022.4
20240220200439 73 180 2.0 10.0 0.00 0.00 0.00 10 1022.4
20240220195939 72 300 3.0 14.0 0.00 0.00 0.00 10 1022.4
20240220195439 72 249 9.0 14.0 0.00 0.00 0.00 10 1022.4
20240220194939 72 278 5.0 13.0 0.00 0.00 0.00 11 1022.4
20240220194439 72 343 4.0 12.0 0.00 0.00 0.00 11 1022.4
20240220193939 72 248 3.0 12.0 0.00 0.00 0.00 12 1022.4
20240220193439 71 267 6.0 10.0 0.00 0.00 0.00 12 1022.7
20240220192939 72 215 7.0 10.0 0.00 0.00 0.00 11 1023.1
20240220192439 72 221 7.0 10.0 0.00 0.00 0.00 12 1023.1
20240220191939 72 284 5.0 12.0 0.00 0.00 0.00 12 1023.1
20240220191439 72 229 4.0 12.0 0.00 0.00 0.00 12 1023.1
20240220190939 71 245 5.0 10.0 0.00 0.00 0.00 13 1023.4
20240220190439 71 187 3.0 10.0 0.00 0.00 0.00 13 1023.4
20240220185941 71 253 4.0 9.0 0.00 0.00 0.00 14 1023.4
20240220185441 71 218 4.0 11.0 0.00 0.00 0.00 14 1023.7
20240220184941 71 291 5.0 14.0 0.00 0.00 0.00 13 1023.7
20240220184441 71 277 7.0 14.0 0.00 0.00 0.00 14 1023.7
20240220183941 71 183 4.0 11.0 0.00 0.00 0.00 14 1024.1
20240220183441 71 197 4.0 12.0 0.00 0.00 0.00 14 1024.1
20240220182941 70 283 4.0 12.0 0.00 0.00 0.00 14 1024.1
20240220182441 70 253 6.0 9.0 0.00 0.00 0.00 14 1024.1
20240220181941 70 277 5.0 9.0 0.00 0.00 0.00 15 1024.1
20240220181441 69 277 4.0 12.0 0.00 0.00 0.00 16 1024.1
20240220180941 69 203 6.0 12.0 0.00 0.00 0.00 15 1024.4
20240220180441 70 238 7.0 12.0 0.00 0.00 0.00 16 1024.4
20240220175941 69 233 9.0 12.0 0.00 0.00 0.00 16 1024.4
20240220175441 69 288 4.0 12.0 0.00 0.00 0.00 16 1024.4
20240220174941 69 229 4.0 10.0 0.00 0.00 0.00 15 1024.4
20240220174441 69 186 4.0 11.0 0.00 0.00 0.00 16 1024.4
20240220173941 69 304 6.0 11.0 0.00 0.00 0.00 16 1024.4
20240220173441 69 269 6.0 11.0 0.00 0.00 0.00 16 1024.4
20240220172941 69 291 5.0 11.0 0.00 0.00 0.00 17 1024.4
20240220172441 68 195 0.0 8.0 0.00 0.00 0.00 18 1024.4
20240220171941 68 300 1.0 8.0 0.00 0.00 0.00 19 1024.4
20240220171441 68 316 3.0 9.0 0.00 0.00 0.00 18 1024.4
20240220170941 68 235 4.0 9.0 0.00 0.00 0.00 18 1024.4
20240220170441 67 257 3.0 6.0 0.00 0.00 0.00 19 1024.4
20240220165941 67 214 2.0 7.0 0.00 0.00 0.00 19 1024.4
20240220165441 66 195 0.0 7.0 0.00 0.00 0.00 20 1024.4
20240220164941 66 253 3.0 7.0 0.00 0.00 0.00 20 1024.8
20240220164441 65 229 4.0 6.0 0.00 0.00 0.00 21 1024.4
20240220163941 65 210 3.0 5.0 0.00 0.00 0.00 21 1024.4
20240220163441 65 262 0.0 6.0 0.00 0.00 0.00 22 1024.8
20240220162941 64 225 1.0 7.0 0.00 0.00 0.00 23 1024.8
20240220162441 63 226 2.0 7.0 0.00 0.00 0.00 23 1024.4
20240220161941 63 245 4.0 7.0 0.00 0.00 0.00 21 1024.4
20240220161441 63 188 4.0 7.0 0.00 0.00 0.00 22 1024.4
20240220160941 63 238 2.0 7.0 0.00 0.00 0.00 23 1024.4
20240220160441 63 274 3.0 7.0 0.00 0.00 0.00 23 1024.4
20240220155941 63 270 0.0 7.0 0.00 0.00 0.00 24 1024.4
20240220155441 62 260 3.0 6.0 0.00 0.00 0.00 25 1024.4
20240220154941 63 225 1.0 6.0 0.00 0.00 0.00 25 1024.4
20240220154441 62 252 0.0 5.0 0.00 0.00 0.00 25 1024.4
20240220153941 62 280 0.0 2.0 0.00 0.00 0.00 26 1024.1
20240220153441 62 280 0.0 2.0 0.00 0.00 0.00 26 1024.1
20240220152941 62 318 0.0 2.0 0.00 0.00 0.00 25 1024.1
20240220152441 62 59 0.0 0.0 0.00 0.00 0.00 25 1024.1
20240220151941 61 59 0.0 0.0 0.00 0.00 0.00 25 1024.1
20240220151441 60 59 0.0 0.0 0.00 0.00 0.00 27 1023.7
20240220150941 59 59 0.0 0.0 0.00 0.00 0.00 29 1023.7
20240220150441 57 59 0.0 3.0 0.00 0.00 0.00 30 1023.7
20240220145941 55 59 0.0 3.0 0.00 0.00 0.00 33 1023.7
20240220145441 54 77 3.0 3.0 0.00 0.00 0.00 36 1023.4
20240220144941 52 77 0.0 0.0 0.00 0.00 0.00 37 1023.4
20240220144441 50 77 0.0 2.0 0.00 0.00 0.00 41 1023.4
20240220143941 48 77 0.0 3.0 0.00 0.00 0.00 43 1023.4
20240220143441 46 90 1.0 4.0 0.00 0.00 0.00 46 1023.4
20240220142941 45 96 2.0 4.0 0.00 0.00 0.00 46 1023.4
20240220142441 46 91 0.0 0.0 0.00 0.00 0.00 44 1023.1
20240220141941 46 91 0.0 0.0 0.00 0.00 0.00 43 1023.1
20240220141441 46 91 0.0 0.0 0.00 0.00 0.00 42 1023.1
20240220140941 45 91 0.0 4.0 0.00 0.00 0.00 44 1023.1
20240220140441 45 91 0.0 5.0 0.00 0.00 0.00 43 1022.7
20240220135941 45 89 4.0 5.0 0.00 0.00 0.00 44 1022.7
20240220135441 45 76 0.0 3.0 0.00 0.00 0.00 45 1022.7
20240220134941 44 76 0.0 3.0 0.00 0.00 0.00 46 1022.7
20240220134441 44 103 0.0 0.0 0.00 0.00 0.00 45 1022.4
20240220133941 44 103 0.0 0.0 0.00 0.00 0.00 45 1022.4
20240220133441 45 103 0.0 0.0 0.00 0.00 0.00 45 1022.4
20240220132941 45 103 0.0 0.0 0.00 0.00 0.00 44 1022.4
20240220132441 46 103 0.0 0.0 0.00 0.00 0.00 41 1022.4
20240220131941 47 103 0.0 0.0 0.00 0.00 0.00 40 1022.4
20240220131441 47 103 0.0 5.0 0.00 0.00 0.00 39 1022.4
20240220130941 48 103 0.0 5.0 0.00 0.00 0.00 39 1022.1
20240220130441 50 68 3.0 4.0 0.00 0.00 0.00 38 1022.1
20240220125941 51 169 0.0 0.0 0.00 0.00 0.00 34 1022.4
20240220125441 52 169 0.0 0.0 0.00 0.00 0.00 33 1022.4
20240220124941 52 169 0.0 0.0 0.00 0.00 0.00 33 1022.1
20240220124441 52 169 0.0 0.0 0.00 0.00 0.00 33 1022.1
20240220123941 52 169 0.0 0.0 0.00 0.00 0.00 33 1022.1
20240220123441 54 169 0.0 0.0 0.00 0.00 0.00 32 1022.1
20240220122941 55 169 0.0 2.0 0.00 0.00 0.00 29 1022.1
20240220122441 57 169 0.0 4.0 0.00 0.00 0.00 28 1022.1
20240220121942 58 159 0.0 5.0 0.00 0.00 0.00 25 1022.1
20240220121441 58 203 3.0 6.0 0.00 0.00 0.00 25 1021.7
20240220120941 59 195 2.0 7.0 0.00 0.00 0.00 24 1022.1
20240220120441 59 195 2.0 7.0 0.00 0.00 0.00 24 1022.1
20240220115941 59 70 1.0 8.0 0.00 0.00 0.00 25 1021.7
20240220115441 58 210 3.0 8.0 0.00 0.00 0.00 25 1021.7
20240220114941 58 149 4.0 8.0 0.00 0.00 0.00 26 1021.7
20240220114441 58 142 0.0 7.0 0.00 0.00 0.00 25 1021.7
20240220113941 59 170 3.0 7.0 0.00 0.00 0.00 24 1021.4
20240220113441 59 177 4.0 7.0 0.00 0.00 0.00 24 1021.4
20240220112941 59 163 2.0 8.0 0.00 0.00 0.00 23 1021.4
20240220112441 59 174 3.0 8.0 0.00 0.00 0.00 23 1021.4
20240220111941 59 159 4.0 8.0 0.00 0.00 0.00 23 1021.4
20240220111441 59 153 4.0 8.0 0.00 0.00 0.00 23 1021.4
20240220110941 59 172 3.0 7.0 0.00 0.00 0.00 23 1021.4
20240220110441 59 148 4.0 7.0 0.00 0.00 0.00 23 1021.4
20240220105941 59 148 3.0 7.0 0.00 0.00 0.00 23 1021.4
20240220105441 59 166 1.0 7.0 0.00 0.00 0.00 23 1021.4
20240220104941 60 172 4.0 9.0 0.00 0.00 0.00 23 1021.4
20240220104441 60 127 6.0 9.0 0.00 0.00 0.00 23 1021.4
20240220103941 60 139 4.0 8.0 0.00 0.00 0.00 23 1021.4
20240220103441 60 148 4.0 9.0 0.00 0.00 0.00 22 1021.4
20240220102941 60 127 5.0 10.0 0.00 0.00 0.00 23 1021.4
20240220102441 60 148 4.0 10.0 0.00 0.00 0.00 22 1021.4
20240220101941 60 158 5.0 9.0 0.00 0.00 0.00 23 1021.4
20240220101441 60 131 3.0 7.0 0.00 0.00 0.00 22 1021.4
20240220100941 60 138 3.0 7.0 0.00 0.00 0.00 22 1021.4
20240220095941 60 162 3.0 9.0 0.00 0.00 0.00 22 1021.4
20240220095441 59 162 3.0 9.0 0.00 0.00 0.00 22 1021.4
20240220094941 59 148 2.0 6.0 0.00 0.00 0.00 22 1021.4
20240220094441 59 153 3.0 6.0 0.00 0.00 0.00 22 1021.7
20240220093941 60 180 1.0 7.0 0.00 0.00 0.00 22 1021.4
20240220093441 59 149 3.0 7.0 0.00 0.00 0.00 22 1021.4
20240220092941 60 131 3.0 7.0 0.00 0.00 0.00 22 1021.4
20240220092441 60 148 4.0 7.0 0.00 0.00 0.00 22 1021.4
20240220091941 60 107 4.0 8.0 0.00 0.00 0.00 22 1021.4
20240220091441 60 179 3.0 8.0 0.00 0.00 0.00 22 1021.7
20240220090941 60 115 3.0 7.0 0.00 0.00 0.00 22 1021.7
20240220090441 61 204 4.0 6.0 0.00 0.00 0.00 21 1021.7
20240220085941 61 117 2.0 6.0 0.00 0.00 0.00 20 1021.7
20240220085441 61 184 2.0 8.0 0.00 0.00 0.00 20 1021.7
20240220084941 62 113 3.0 10.0 0.00 0.00 0.00 19 1021.7
20240220084441 62 129 6.0 10.0 0.00 0.00 0.00 19 1021.7
20240220083941 63 165 2.0 10.0 0.00 0.00 0.00 18 1021.7
20240220083441 63 163 4.0 10.0 0.00 0.00 0.00 18 1021.7
20240220082941 62 166 3.0 9.0 0.00 0.00 0.00 18 1021.7
20240220082441 62 195 4.0 9.0 0.00 0.00 0.00 18 1021.7
20240220081941 62 101 5.0 10.0 0.00 0.00 0.00 19 1021.7
20240220081441 62 173 1.0 10.0 0.00 0.00 0.00 19 1021.7
20240220080941 62 141 4.0 9.0 0.00 0.00 0.00 20 1021.7
20240220080441 61 138 4.0 8.0 0.00 0.00 0.00 19 1021.7
20240220075941 61 160 3.0 8.0 0.00 0.00 0.00 20 1021.7
20240220075441 61 136 3.0 8.0 0.00 0.00 0.00 19 1021.7
20240220074941 62 160 4.0 8.0 0.00 0.00 0.00 19 1021.7
20240220074441 62 162 4.0 9.0 0.00 0.00 0.00 19 1021.7
20240220073941 62 160 4.0 9.0 0.00 0.00 0.00 19 1021.7
20240220073441 61 155 2.0 6.0 0.00 0.00 0.00 19 1021.7
20240220072941 61 135 1.0 9.0 0.00 0.00 0.00 19 1021.7
20240220072441 61 136 3.0 9.0 0.00 0.00 0.00 20 1021.7
20240220071941 61 214 4.0 8.0 0.00 0.00 0.00 20 1021.7
20240220071441 61 158 3.0 8.0 0.00 0.00 0.00 19 1021.7
20240220070941 61 139 2.0 7.0 0.00 0.00 0.00 19 1021.7
20240220070441 60 172 4.0 7.0 0.00 0.00 0.00 20 1021.7
20240220065941 60 93 0.0 6.0 0.00 0.00 0.00 20 1021.7
20240220065441 60 101 3.0 6.0 0.00 0.00 0.00 20 1021.7
20240220064941 60 148 0.0 8.0 0.00 0.00 0.00 20 1021.7
20240220064441 61 153 2.0 8.0 0.00 0.00 0.00 20 1021.7
20240220063941 60 150 4.0 9.0 0.00 0.00 0.00 20 1021.7
20240220063441 60 183 3.0 12.0 0.00 0.00 0.00 21 1021.7
20240220062941 59 160 1.0 12.0 0.00 0.00 0.00 22 1021.7
20240220062441 60 176 5.0 8.0 0.00 0.00 0.00 22 1021.7
20240220061941 59 120 4.0 7.0 0.00 0.00 0.00 22 1021.7
20240220061441 59 142 2.0 7.0 0.00 0.00 0.00 23 1021.7
20240220060941 59 143 3.0 7.0 0.00 0.00 0.00 23 1021.7
20240220060441 59 172 4.0 7.0 0.00 0.00 0.00 23 1021.7
20240220055941 59 152 3.0 8.0 0.00 0.00 0.00 23 1021.7
20240220055441 60 170 4.0 9.0 0.00 0.00 0.00 23 1021.7
20240220054941 59 179 4.0 9.0 0.00 0.00 0.00 23 1021.7
20240220054441 59 131 5.0 8.0 0.00 0.00 0.00 24 1021.7
20240220053941 59 141 5.0 8.0 0.00 0.00 0.00 24 1021.7
20240220053441 59 141 1.0 7.0 0.00 0.00 0.00 25 1021.7
20240220052941 59 124 0.0 8.0 0.00 0.00 0.00 25 1021.7
20240220052441 59 150 4.0 8.0 0.00 0.00 0.00 25 1021.7
20240220051941 59 138 5.0 7.0 0.00 0.00 0.00 25 1021.7
20240220051441 59 113 4.0 7.0 0.00 0.00 0.00 25 1021.7
20240220050941 59 158 4.0 6.0 0.00 0.00 0.00 25 1021.7
20240220050441 59 125 3.0 6.0 0.00 0.00 0.00 25 1021.7
20240220045941 60 111 2.0 7.0 0.00 0.00 0.00 24 1021.7
20240220045441 60 166 3.0 9.0 0.00 0.00 0.00 24 1021.7
20240220044941 61 134 1.0 14.0 0.00 0.00 0.00 23 1021.7
20240220044441 61 115 7.0 14.0 0.00 0.00 0.00 23 1021.7
20240220043941 60 253 2.0 8.0 0.00 0.00 0.00 25 1021.4
20240220043441 60 158 4.0 8.0 0.00 0.00 0.00 25 1021.4
20240220042941 60 143 0.0 6.0 0.00 0.00 0.00 25 1021.4
20240220042441 61 101 2.0 6.0 0.00 0.00 0.00 25 1021.4
20240220041941 61 169 2.0 7.0 0.00 0.00 0.00 25 1021.4
20240220041441 61 128 3.0 7.0 0.00 0.00 0.00 25 1021.4
20240220040941 61 114 0.0 7.0 0.00 0.00 0.00 25 1021.4
20240220040441 61 114 0.0 8.0 0.00 0.00 0.00 25 1021.0
20240220035941 61 184 3.0 8.0 0.00 0.00 0.00 25 1021.0
20240220035441 61 115 0.0 5.0 0.00 0.00 0.00 26 1021.0
20240220034941 61 166 2.0 5.0 0.00 0.00 0.00 26 1021.0
20240220034441 61 194 0.0 7.0 0.00 0.00 0.00 25 1021.0
20240220033941 62 194 2.0 7.0 0.00 0.00 0.00 25 1021.0
20240220033441 61 176 4.0 6.0 0.00 0.00 0.00 25 1021.0
20240220032941 62 188 0.0 6.0 0.00 0.00 0.00 26 1021.0
20240220032441 62 158 2.0 6.0 0.00 0.00 0.00 25 1021.0
20240220031941 62 166 2.0 7.0 0.00 0.00 0.00 25 1020.7
20240220031441 62 169 3.0 7.0 0.00 0.00 0.00 25 1021.0
20240220030941 62 129 2.0 8.0 0.00 0.00 0.00 26 1020.7
20240220030441 62 141 2.0 8.0 0.00 0.00 0.00 26 1021.0
20240220025941 62 136 3.0 7.0 0.00 0.00 0.00 26 1020.7
20240220025441 62 155 2.0 7.0 0.00 0.00 0.00 26 1020.7
20240220024941 62 176 3.0 6.0 0.00 0.00 0.00 26 1020.7
20240220024441 62 172 1.0 8.0 0.00 0.00 0.00 27 1020.7
20240220023941 62 139 3.0 8.0 0.00 0.00 0.00 26 1020.7
20240220023441 62 203 3.0 8.0 0.00 0.00 0.00 27 1020.7
20240220022941 62 215 1.0 5.0 0.00 0.00 0.00 26 1020.7
20240220022441 62 210 0.0 9.0 0.00 0.00 0.00 26 1020.7
20240220021941 62 191 4.0 9.0 0.00 0.00 0.00 26 1020.7
20240220021441 62 148 3.0 8.0 0.00 0.00 0.00 26 1020.4
20240220020941 62 173 4.0 10.0 0.00 0.00 0.00 26 1020.4
20240220020441 62 176 2.0 10.0 0.00 0.00 0.00 26 1020.4
20240220015941 62 124 1.0 7.0 0.00 0.00 0.00 26 1020.4
20240220015441 62 165 5.0 7.0 0.00 0.00 0.00 26 1020.4
20240220014941 62 132 0.0 5.0 0.00 0.00 0.00 26 1020.0
20240220014441 61 141 2.0 5.0 0.00 0.00 0.00 26 1020.0
20240220013941 62 98 0.0 4.0 0.00 0.00 0.00 26 1020.0
20240220013441 62 184 0.0 4.0 0.00 0.00 0.00 25 1020.0
20240220012941 62 198 0.0 4.0 0.00 0.00 0.00 25 1020.0
20240220012441 62 135 0.0 5.0 0.00 0.00 0.00 24 1020.0
20240220011941 63 162 2.0 6.0 0.00 0.00 0.00 24 1020.0
20240220011441 63 135 1.0 6.0 0.00 0.00 0.00 24 1019.7
20240220010941 62 122 0.0 0.0 0.00 0.00 0.00 24 1019.7
20240220010441 63 122 0.0 0.0 0.00 0.00 0.00 24 1019.7
20240220005941 63 122 0.0 0.0 0.00 0.00 0.00 23 1019.7
20240220005441 63 122 0.0 0.0 0.00 0.00 0.00 23 1019.7
20240220004941 63 122 0.0 4.0 0.00 0.00 0.00 23 1019.7
20240220004441 64 122 1.0 5.0 0.00 0.00 0.00 23 1019.7
20240220003941 64 134 2.0 5.0 0.00 0.00 0.00 23 1019.7
20240220003441 64 338 0.0 0.0 0.00 0.00 0.00 22 1019.7
20240220002941 65 338 0.0 0.0 0.00 0.00 0.00 21 1019.7
20240220002441 65 338 0.0 0.0 0.00 0.00 0.00 21 1019.7
20240220001941 65 338 0.0 0.0 0.00 0.00 0.00 21 1019.7
20240220001441 65 338 0.0 0.0 0.00 0.00 0.00 20 1019.3
20240220000941 66 338 0.0 0.0 0.00 0.00 0.00 20 1019.3
20240220000442 66 338 0.0 0.0 0.00 0.00 0.00 19 1019.3
20240219235941 67 338 0.0 0.0 0.00 0.00 0.00 19 1019.7
20240219235441 67 338 0.0 0.0 0.00 0.00 0.00 19 1019.7
20240219234941 66 338 0.0 0.0 0.00 0.00 0.00 19 1019.7
20240219234441 66 338 0.0 0.0 0.00 0.00 0.00 19 1019.7
20240219233941 66 338 0.0 0.0 0.00 0.00 0.00 19 1019.7
20240219233441 66 338 0.0 0.0 0.00 0.00 0.00 19 1019.3
20240219232941 67 338 0.0 0.0 0.00 0.00 0.00 19 1019.7
20240219232441 66 338 0.0 0.0 0.00 0.00 0.00 19 1019.3
20240219231941 67 338 0.0 0.0 0.00 0.00 0.00 19 1019.3
20240219231441 67 338 0.0 0.0 0.00 0.00 0.00 18 1019.3
20240219230941 68 338 0.0 0.0 0.00 0.00 0.00 18 1019.3
20240219230441 68 338 0.0 6.0 0.00 0.00 0.00 18 1019.3
20240219225941 68 338 0.0 6.0 0.00 0.00 0.00 18 1019.7
20240219225441 68 339 0.0 0.0 0.00 0.00 0.00 18 1019.3
20240219224941 68 339 0.0 0.0 0.00 0.00 0.00 18 1019.3
20240219224441 68 339 0.0 2.0 0.00 0.00 0.00 18 1019.3
20240219223941 68 339 0.0 5.0 0.00 0.00 0.00 17 1019.3
20240219223441 68 293 0.0 5.0 0.00 0.00 0.00 18 1019.0
20240219222941 68 245 0.0 5.0 0.00 0.00 0.00 17 1019.3
20240219222441 68 0 0.0 7.0 0.00 0.00 0.00 18 1019.3
20240219221941 68 311 0.0 7.0 0.00 0.00 0.00 18 1019.0
20240219221441 68 304 0.0 6.0 0.00 0.00 0.00 18 1019.0
20240219220941 68 294 3.0 6.0 0.00 0.00 0.00 18 1019.0
20240219220441 67 277 0.0 6.0 0.00 0.00 0.00 18 1019.0